Regional Weather Roundup
Issued by NWS Charleston, SC

Current Version | Previous Version | Text Only | Print | Product List | Glossary Off
Versions: 1 2 3 4 5 6 7 8 9 10 11 12 13 14 15 16 17 18 19 20 21 22 23 24 25 26 27 28 29 30 31 32 33 34 35 36 37 38 39 40 41 42 43 44 45 46 47 48 49 50

464
ASUS42 KCHS 260911
RWRCHS

REGIONAL WEATHER ROUNDUP
NATIONAL WEATHER SERVICE CHARLESTON SC
400 AM EST SUN FEB 26 2017

NOTE: "FAIR" INDICATES FEW OR NO CLOUDS BELOW 12,000 FEET WITH NO
SIGNIFICANT WEATHER AND/OR OBSTRUCTIONS TO VISIBILITY.

NOT ALL STATIONS ARE QUALITY CONTROLLED. USE DATA WITH CAUTION...
ESPECIALLY DEWPOINT OBSERVATIONS.

SCZ027-030-031-034>040-042>050-261000-
...SOUTHEAST SOUTH CAROLINA...

CITY           SKY/WX    TMP DP  RH WIND       PRES   REMARKS
N CHARLESTON   CLEAR     51  22  31 NW12      30.02R
WATERFRONT PRK   N/A     55  26  32 NW6       30.01R
MOUNT PLEASANT LGT RAIN  54  27  35 NW9       30.02R
JOHNS ISLAND   FAIR      50  25  37 W6        30.03R
PINOPOLIS        N/A     55  34  44 NW14      29.92R
MONCKS CORNER  FAIR      48  21  34 NW3       30.03R
SUMMERVILLE    FAIR      50  25  37 NW5       30.05R
BEAUFORT MCAS  CLEAR     50  26  39 NW7       30.05R
BEAUFORT ARPT  FAIR      50  30  46 W6        30.05R
HILTON HEAD IS CLEAR     52  25  35 VRB5      30.06R
WALTERBORO     SUNNY     46  25  42 NW5       30.05R
ALLENDALE      FAIR      46  23  39 CALM      30.05R

...SOUTHERN MIDLANDS AND PEE DEE...

CITY           SKY/WX    TMP DP  RH WIND       PRES   REMARKS
GEORGETOWN     FAIR      48  27  43 W5        30.01R
KINGSTREE      FAIR      45  23  42 CALM      30.02R
ORANGEBURG     CLEAR     48  23  37 NW7       30.04R
BARNWELL       FAIR      46  25  42 NW3       30.06R
AIKEN          FAIR      41  21  45 W6        30.08R
MANNING        FAIR      45  25  45 MISG      30.04R
COLUMBIA       CLEAR     49  23  36 NW7       30.04R
SUMTER         CLEAR     45  22  40 NW5       30.01R
FLORENCE       CLEAR     48  19  31 N10       30.02R
MYRTLE BEACH   CLEAR     53  25  33 NW9       30.00
N MYRTLE BEACH CLEAR     51  26  37 NW5       29.99R

$$

GAZ063-065-086>088-099>101-113>116-118-119-134>141-150-261000-
...SOUTHEAST GEORGIA...

CITY           SKY/WX    TMP DP  RH WIND       PRES   REMARKS
SAVANNAH ARPT  CLEAR     49  25  39 NW7       30.07R
HUNTER AAF     CLEAR     50  28  43 CALM      30.04R
FORT STEWART   CLEAR     49  25  38 CALM      30.05R
STATESBORO     CLEAR     46  30  54 NW6       30.07R
SYLVANIA       SUNNY    N/A N/A N/A NW3       30.07R
CLAXTON        FAIR      46  31  56 W5        30.08R

...CSRA...CENTRAL AND FAR SOUTHEAST GEORGIA...

CITY           SKY/WX    TMP DP  RH WIND       PRES   REMARKS
THOMSON        CLEAR     41  28  60 CALM      30.11S
AUGUSTA-BUSH   CLEAR     46  23  40 NW9       30.06R
AUGUSTA-DANIEL CLEAR     46  19  34 NW9       30.06R
SWAINSBORO     FAIR      43  28  56 NW6       30.08R
VIDALIA        CLEAR     46  32  57 NW7       30.08R
EASTMAN        FAIR      44  15  31 CALM      30.12R
HAZLEHURST     FAIR      48  26  43 CALM      30.08R
ALMA           CLEAR     42  29  59 NW3       30.09R
WAYCROSS       CLEAR     49  33  53 N3        30.10R
JESUP          FAIR      50  27  40 NW5       30.09R
BAXLEY         FAIR      48  30  49 CALM      30.09R
BRUNSWICK      CLEAR     52  32  46 NW7       30.08R
SAINT SIMONS   CLEAR     54  24  31 NW8       30.07R

$$

SCZ027-028-034-036>038-045-046-048>050-GAZ119-141-261000-
...LAKE AND SUPPLEMENTAL COASTAL OBSERVATIONS...

STATION/POSITION TIME  TEMP    WIND        PRES    WAVE   SWELL
                       AIR SEA DIR/SP/G            HT/PER HT/PER/DIR
                 (UTC) (F)     (DEG/KT/KT) (MB)    (FT/S) (FT/S/D)
WINYAH BAY       NOT AVBL
LAKE MURRAY      0820   46     310/  3/  6 1016.6
ACE BASIN NERRS  0745   52     300/  2     1016.0
FORT PULASKI     0848   53 62  330/ 12/ 15 1017.9R
SAPELO ISLAND    0800   53     320/  7     1017.0

$$

ANZ835-935-AMZ111-154-330-350-352-354-370-450-454-472-261000-
...C-MAN AND BUOY OBSERVATIONS...

STATION/POSITION TIME  TEMP    WIND        PRES    WAVE   SWELL
                       AIR SEA DIR/SP/G            HT/PER HT/PER/DIR
                 (UTC) (F)     (DEG/KT/KT) (MB)    (FT/S) (FT/S/D)
BUOY 41004       0750   62 69  310/ 23/ 29 1014.2    6/ 5   2/110/ 9
BUOY 41008       0750   60 62  320/ 19/ 23 1016.4    4/ 4   2/ 80/10
FOLLY BEACH CMAN 0800   53     310/  5/ 11 1016.5R
CAPERS NEARSHORE 0808   57 60  320/ 16/ 19 1015.6R
FRIPP NEARSHORE  0808   57 62  320/ 12/ 14 1016.5R


STATION/POSITION TIME  TEMP    WIND        PRES    WAVE   SWELL
                       AIR SEA DIR/SP/G            HT/PER HT/PER/DIR
                 (UTC) (F)     (DEG/KT/KT) (MB)    (FT/S) (FT/S/D)
5E ST. MARYS GA  0830      65                N/A     3/ 9   2/100/11
FRYING PAN BUOY  0850   61 69  320/ 21/ 27 1014.0R   5/10   3/110/10
BUOY 41025       0850   60 73  340/ 19/ 23 1012.0R   7/10   5/150/10
CAPE LOOKOUT NC  0800   59     330/ 19/ 22 1012.4R
BUOY 41002       0850   72 71  240/ 16/ 19 1012.4R   6/10   5/ 90/10
BUOY 41010       NOT AVBL
ST AUGUSTINE FL  0900   59 65  330/ 13/ 15 1018.6R


$$




USA.gov is the U.S. government's official web portal to all federal, state and local government web resources and services.